Weather History for Robinson, IL

Change the Weather History Date:

Sunday, February 2, 2014

  Actual Average (KLWV) Record (KLWV)
Temperature  
Mean Temperature 29 °F 32 °F  
Max Temperature 34 °F 41 °F 59 °F (2003)
Min Temperature 23 °F 24 °F 7 °F (2001)
Degree Days  
Heating Degree Days 36 33  
Month to date heating degree days 66  
Since 1 July heating degree days 2917  
Cooling Degree Days 0 0  
Month to date cooling degree days 0  
Year to date cooling degree days 0  
Moisture  
Dew Point 26 °F    
Average Humidity 89    
Maximum Humidity 100    
Minimum Humidity 80    
Precipitation  
Precipitation 0.07 in 0.07 in 1.52 in (1986)
Month to date precipitation 0.14  
Year to date precipitation 2.52  
Sea Level Pressure  
Sea Level Pressure 30.20 in    
Wind  
Wind Speed 10 mph (North)    
Max Wind Speed 14 mph    
Max Gust Speed 20 mph    
Visibility 8 miles    
Events Rain , Snow    
T = Trace of Precipitation, MM = Missing Value Source: NWS Daily Summary

Daily Weather History Graph

Daily Weather History Graph

Search for Another Location

Airport:

Trip Planner

Search our weather history database for the weather conditions in past years. The results will help you decide how hot, cold, wet, or windy it might be!

Date:

Astronomy

Feb. 02, 2014 Rise Set
Actual Time 6:56 AM CST 5:13 PM CST
Civil Twilight 6:28 AM CST 5:41 PM CST
Nautical Twilight 5:56 AM CST 6:13 PM CST
Astronomical Twilight 5:24 AM CST 6:44 PM CST
Moon 8:24 AM CST (2/2) 8:54 PM CST (2/2)
Length of Visible Light 11h 13m
Length of Day
10h 16m
Waxing Crescent, 11% of the Moon is Illuminated
Feb 2
Waxing Crescent
Feb 6
First Quarter
Feb 14
Full
Feb 22
Last Quarter
Mar 1
New

Hourly Weather History & Observations

Time (CST) Temp. Windchill Dew Point Humidity Pressure Visibility Wind Dir Wind Speed Gust Speed Precip Events Conditions
12:15 AM 34.2 °F 26.8 °F 34.2 °F 100% 30.04 in 4.0 mi North 9.2 mph - N/A   Overcast
12:35 AM 34.0 °F 26.6 °F 34.0 °F 100% 30.04 in 5.0 mi North 9.2 mph - 0.01 in   Overcast
12:55 AM 34.0 °F 26.6 °F 34.0 °F 100% 30.04 in 4.0 mi North 9.2 mph - 0.01 in   Overcast
1:15 AM 33.8 °F 24.8 °F 33.8 °F 100% 30.03 in 5.0 mi North 12.7 mph - 0.01 in   Overcast
1:35 AM 33.8 °F 27.0 °F 33.8 °F 100% 30.06 in 4.0 mi North 8.1 mph - 0.02 in   Overcast
1:55 AM 33.8 °F 26.4 °F 33.8 °F 100% 30.06 in 4.0 mi North 9.2 mph - 0.02 in Rain Rain
2:15 AM 33.8 °F 24.8 °F 33.8 °F 100% 30.07 in 5.0 mi North 12.7 mph - N/A Rain Light Rain
2:35 AM 33.6 °F 24.6 °F 33.6 °F 100% 30.06 in 4.0 mi North 12.7 mph - N/A Rain Rain
2:55 AM 33.4 °F 24.3 °F 33.4 °F 100% 30.08 in 5.0 mi North 12.7 mph 17.3 mph N/A   Overcast
3:15 AM 33.3 °F 25.1 °F 32.9 °F 99% 30.09 in 5.0 mi North 10.4 mph - 0.02 in Snow Light Snow
3:35 AM 33.3 °F 25.7 °F 32.9 °F 99% 30.09 in 4.0 mi North 9.2 mph - 0.03 in Snow Light Snow
3:55 AM 32.9 °F 24.1 °F 32.2 °F 97% 30.10 in 5.0 mi North 11.5 mph 19.6 mph 0.03 in Snow Light Snow
4:15 AM 32.9 °F 25.3 °F 32.2 °F 97% 30.11 in 2.5 mi NNW 9.2 mph - N/A Snow Light Snow
4:35 AM 32.4 °F 24.6 °F 32.0 °F 99% 30.10 in 3.0 mi North 9.2 mph - 0.01 in Snow Light Snow
4:55 AM 32.2 °F 25.0 °F 32.0 °F 99% 30.09 in 5.0 mi North 8.1 mph - 0.01 in   Overcast
5:15 AM 32.0 °F 23.6 °F 31.5 °F 98% 30.10 in 7.0 mi North 10.4 mph 18.4 mph N/A   Overcast
5:35 AM 32.0 °F 23.6 °F 30.9 °F 96% 30.11 in 7.0 mi North 10.4 mph - N/A   Overcast
5:55 AM 32.0 °F 23.0 °F 30.6 °F 94% 30.13 in 10.0 mi NNW 11.5 mph - N/A   Overcast
6:15 AM 32.0 °F 22.1 °F 30.6 °F 94% 30.15 in 7.0 mi NNW 13.8 mph - N/A   Overcast
6:35 AM 31.8 °F 23.3 °F 30.2 °F 94% 30.16 in 10.0 mi NNW 10.4 mph - N/A   Overcast
6:55 AM 31.3 °F 22.1 °F 29.8 °F 94% 30.16 in 7.0 mi NNW 11.5 mph - N/A   Overcast
7:15 AM 31.1 °F 23.1 °F 29.5 °F 94% 30.17 in 7.0 mi North 9.2 mph - N/A   Overcast
7:35 AM 30.9 °F 21.7 °F 29.3 °F 94% 30.19 in 7.0 mi North 11.5 mph - N/A   Overcast
7:55 AM 30.7 °F 20.9 °F 29.1 °F 94% 30.21 in 7.0 mi NNW 12.7 mph - N/A   Overcast
8:15 AM 30.6 °F 23.8 °F 29.1 °F 94% 30.21 in 5.0 mi NNW 6.9 mph - N/A   Mostly Cloudy
8:35 AM 30.2 °F 20.2 °F 28.6 °F 94% 30.21 in 5.0 mi NNW 12.7 mph - N/A   Overcast
8:55 AM 29.8 °F 19.8 °F 28.0 °F 93% 30.22 in 7.0 mi North 12.7 mph - N/A   Mostly Cloudy
9:15 AM 29.7 °F 20.1 °F 27.9 °F 93% 30.23 in 7.0 mi NNW 11.5 mph - N/A   Mostly Cloudy
9:35 AM 29.3 °F 18.6 °F 26.6 °F 90% 30.25 in 10.0 mi North 13.8 mph - N/A   Scattered Clouds
9:55 AM 28.8 °F 19.0 °F 26.1 °F 90% 30.27 in 10.0 mi NW 11.5 mph - N/A   Mostly Cloudy
10:15 AM 28.4 °F 20.4 °F 25.7 °F 90% 30.27 in 10.0 mi NNW 8.1 mph - N/A   Scattered Clouds
10:35 AM 28.2 °F 18.3 °F 25.3 °F 89% 30.27 in 10.0 mi NNW 11.5 mph - N/A   Scattered Clouds
10:55 AM 28.2 °F 18.9 °F 25.3 °F 89% 30.26 in 10.0 mi NNW 10.4 mph - N/A   Scattered Clouds
11:15 AM 28.4 °F 19.1 °F 25.5 °F 89% 30.24 in 10.0 mi North 10.4 mph - N/A   Scattered Clouds
11:35 AM 28.4 °F 18.5 °F 25.7 °F 90% 30.24 in 10.0 mi North 11.5 mph - N/A   Mostly Cloudy
11:55 AM 28.2 °F 18.3 °F 25.2 °F 88% 30.24 in 10.0 mi North 11.5 mph - N/A   Mostly Cloudy
12:15 PM 28.4 °F 19.7 °F 24.8 °F 86% 30.25 in 10.0 mi North 9.2 mph - N/A   Scattered Clouds
12:35 PM 29.1 °F 20.0 °F 24.8 °F 84% 30.23 in 10.0 mi North 10.4 mph - N/A   Clear
12:55 PM 28.8 °F 19.5 °F 24.6 °F 84% 30.22 in 10.0 mi North 10.4 mph - N/A   Clear
1:15 PM 29.1 °F 20.6 °F 25.2 °F 85% 30.23 in 10.0 mi North 9.2 mph - N/A   Clear
1:35 PM 29.1 °F 23.0 °F 25.0 °F 85% 30.26 in 10.0 mi North 5.8 mph - N/A   Scattered Clouds
1:55 PM 29.3 °F 20.2 °F 24.8 °F 83% 30.27 in 10.0 mi NNW 10.4 mph - N/A   Mostly Cloudy
2:15 PM 28.9 °F 19.2 °F 24.8 °F 84% 30.25 in 10.0 mi NNW 11.5 mph - N/A   Overcast
2:35 PM 28.4 °F 19.7 °F 24.4 °F 85% 30.24 in 10.0 mi North 9.2 mph - N/A   Scattered Clouds
2:55 PM 28.4 °F 19.7 °F 24.6 °F 86% 30.23 in 10.0 mi NNW 9.2 mph - N/A   Mostly Cloudy
3:15 PM 28.4 °F 19.7 °F 23.7 °F 83% 30.27 in 10.0 mi North 9.2 mph - N/A   Mostly Cloudy
3:35 PM 28.4 °F 18.5 °F 23.0 °F 80% 30.26 in 10.0 mi North 11.5 mph 17.3 mph N/A   Mostly Cloudy
3:55 PM 28.2 °F 19.5 °F 23.2 °F 81% 30.26 in 10.0 mi North 9.2 mph - N/A   Scattered Clouds
4:15 PM 28.2 °F 17.7 °F 23.0 °F 81% 30.25 in 10.0 mi North 12.7 mph - N/A   Clear
4:35 PM 27.9 °F 18.4 °F 22.8 °F 81% 30.26 in 10.0 mi North 10.4 mph - N/A   Clear
4:55 PM 27.5 °F 17.4 °F 22.1 °F 80% 30.27 in 10.0 mi North 11.5 mph - N/A   Mostly Cloudy
5:15 PM 27.3 °F 17.7 °F 22.5 °F 82% 30.27 in 10.0 mi North 10.4 mph - N/A   Overcast
5:35 PM 27.1 °F 17.5 °F 22.3 °F 82% 30.25 in 10.0 mi North 10.4 mph - N/A   Overcast
5:55 PM 27.1 °F 18.2 °F 22.1 °F 81% 30.26 in 10.0 mi North 9.2 mph - N/A   Scattered Clouds
6:15 PM 27.1 °F 17.5 °F 22.1 °F 81% 30.25 in 10.0 mi NNE 10.4 mph - N/A   Scattered Clouds
6:35 PM 27.1 °F 18.2 °F 21.7 °F 80% 30.28 in 10.0 mi North 9.2 mph - N/A   Scattered Clouds
6:55 PM 26.8 °F 17.7 °F 21.9 °F 82% 30.27 in 10.0 mi North 9.2 mph - N/A   Mostly Cloudy
7:15 PM 27.0 °F 18.0 °F 22.1 °F 82% 30.27 in 10.0 mi North 9.2 mph - N/A   Overcast
7:35 PM 26.8 °F 17.7 °F 21.9 °F 82% 30.28 in 10.0 mi North 9.2 mph - N/A   Overcast
7:55 PM 26.2 °F 16.4 °F 21.2 °F 81% 30.27 in 10.0 mi North 10.4 mph - N/A   Overcast
8:15 PM 25.7 °F 15.1 °F 21.2 °F 83% 30.25 in 10.0 mi North 11.5 mph - N/A   Overcast
8:35 PM 25.7 °F 15.7 °F 20.7 °F 81% 30.26 in 10.0 mi North 10.4 mph - N/A   Overcast
8:55 PM 25.3 °F 14.1 °F 20.3 °F 81% 30.24 in 10.0 mi North 12.7 mph - N/A   Overcast
9:15 PM 25.5 °F 17.8 °F 20.7 °F 82% 30.27 in 10.0 mi North 6.9 mph - N/A   Overcast
9:35 PM 25.3 °F 16.0 °F 20.5 °F 82% 30.28 in 10.0 mi North 9.2 mph - N/A   Overcast
9:55 PM 25.3 °F 14.7 °F 20.5 °F 82% 30.28 in 10.0 mi North 11.5 mph - N/A   Overcast
10:15 PM 25.2 °F 15.7 °F 20.5 °F 82% 30.27 in 10.0 mi North 9.2 mph - N/A   Overcast
10:35 PM 24.6 °F 14.4 °F 20.1 °F 83% 30.25 in 10.0 mi North 10.4 mph - N/A   Overcast
10:55 PM 24.6 °F 13.8 °F 20.3 °F 84% 30.26 in 10.0 mi North 11.5 mph - N/A   Overcast
11:15 PM 24.6 °F 13.8 °F 20.3 °F 84% 30.24 in 10.0 mi North 11.5 mph - N/A   Overcast
11:35 PM 24.4 °F 14.2 °F 20.5 °F 85% 30.25 in 10.0 mi North 10.4 mph 16.1 mph N/A   Overcast
11:55 PM 23.9 °F 11.7 °F 19.8 °F 84% 30.27 in 10.0 mi North 13.8 mph - N/A   Overcast